Location: Mermaid+Beach
(28.0410°S, 153.4380°E)
Time: 00:44:37
(UTC+10:00)

ISS - Visible Passes

Search period start: 28 March 2017 00:00
Search period end: 07 April 2017 00:00
Orbit: 399 x 409 km, 51.6° (Epoch: 27 March)

Date Brightness Start Highest point End Pass type
(mag) Time Alt. Az. Time Alt. Az. Time Alt. Az.
30 Mar -0.7 04:46:16 10° NNE 04:47:55 13° NE 04:49:34 10° E visible
31 Mar -3.8 05:28:21 10° NW 05:31:40 80° SW 05:35:01 10° SE visible
01 Apr -2.5 04:37:22 19° N 04:39:18 39° NE 04:42:27 10° ESE visible
02 Apr -0.8 03:48:01 15° ENE 03:48:01 15° ENE 03:49:17 10° E visible
02 Apr -2.6 05:20:44 12° W 05:23:18 26° SW 05:26:11 10° SSE visible
03 Apr -3.5 04:31:11 53° SSW 04:31:11 53° SSW 04:34:05 10° SE visible
04 Apr -0.4 03:41:27 11° SE 03:41:27 11° SE 03:41:38 10° SE visible
04 Apr -1.5 05:14:08 10° SW 05:15:03 11° SW 05:16:13 10° SSW visible
05 Apr -1.3 04:24:15 14° S 04:24:15 14° S 04:25:00 10° S visible
